GW6202 Weather Reports


time (UTC)temp
C
wind
direction
speed
KPH
gust
KPH
rain 1hr
cm
rain 24hr
cm
rain mn
cm
humidity
%
barometer
mb
20260505092733 15 158 4.8 4.8 0.00 0.00 0.00 60 1007.5
20260505092232 15 194 4.8 8.0 0.00 0.00 0.00 60 1007.5
20260505091729 15 314 1.6 1.6 0.00 0.00 0.00 60 1007.2
20260505091227 15 171 8.0 14.5 0.00 0.00 0.00 61 1007.2
20260505090724 15 162 3.2 4.8 0.00 0.00 0.00 60 1007.1
20260505090223 15 294 3.2 3.2 0.00 0.00 0.00 60 1007.2
20260505085719 15 201 6.4 9.7 0.00 0.00 0.00 61 1007.0
20260505085218 15 274 6.4 9.7 0.00 0.00 0.00 61 1007.0
20260505084715 15 195 8.0 11.3 0.00 0.00 0.00 61 1006.9
20260505084214 15 234 6.4 8.0 0.00 0.00 0.00 61 1007.0
20260505083710 15 236 4.8 4.8 0.00 0.00 0.00 61 1007.0
20260505083207 15 180 3.2 3.2 0.00 0.00 0.00 61 1007.1
20260505082703 15 180 6.4 9.7 0.00 0.00 0.00 61 1007.0
20260505082200 15 137 4.8 4.8 0.00 0.00 0.00 61 1007.2
20260505081656 15 197 3.2 3.2 0.00 0.00 0.00 61 1007.0
20260505081154 15 127 6.4 8.0 0.00 0.00 0.00 60 1007.3
20260505080650 15 355 1.6 3.2 0.00 0.00 0.00 59 1007.2
20260505080146 15 243 1.6 3.2 0.00 0.00 0.00 58 1007.1
20260505075642 15 226 9.7 11.3 0.00 0.00 0.00 57 1007.1
20260505075139 15 298 6.4 9.7 0.00 0.00 0.00 58 1007.2
20260505074636 15 190 3.2 3.2 0.00 0.00 0.00 58 1007.3
20260505074133 15 292 1.6 1.6 0.00 0.00 0.00 57 1007.2
20260505073631 15 285 4.8 8.0 0.00 0.00 0.00 57 1007.1
20260505073129 15 239 4.8 8.0 0.00 0.00 0.00 57 1007.3
20260505072624 15 220 6.4 9.7 0.00 0.00 0.00 57 1007.3
20260505072121 15 175 8.0 9.7 0.00 0.00 0.00 56 1007.3
20260505071617 15 160 6.4 9.7 0.00 0.00 0.00 57 1007.5
20260505071115 15 161 9.7 11.3 0.00 0.00 0.00 56 1007.2
20260505070612 15 172 9.7 11.3 0.00 0.00 0.00 56 1007.3
20260505070108 15 217 8.0 9.7 0.00 0.00 0.00 56 1007.5
20260505065604 15 142 4.8 4.8 0.00 0.00 0.00 56 1007.5
20260505065101 15 190 4.8 8.0 0.00 0.00 0.00 57 1007.5
20260505064557 15 216 8.0 9.7 0.00 0.00 0.00 56 1007.4
20260505064056 15 238 4.8 4.8 0.00 0.00 0.00 56 1007.4
20260505063553 15 232 4.8 8.0 0.00 0.00 0.00 56 1007.6
20260505063049 15 238 3.2 3.2 0.00 0.00 0.00 55 1007.4
20260505062545 15 213 8.0 9.7 0.00 0.00 0.00 56 1007.4
20260505062043 15 247 1.6 3.2 0.00 0.00 0.00 57 1007.4
20260505061540 15 194 3.2 3.2 0.00 0.00 0.00 55 1007.5
20260505061038 15 271 1.6 3.2 0.00 0.00 0.00 55 1007.5
20260505060535 15 209 4.8 4.8 0.00 0.00 0.00 55 1007.5
20260505060031 15 227 4.8 4.8 0.00 0.00 0.00 55 1007.2
20260505055527 15 149 9.7 11.3 0.00 0.00 0.00 55 1007.5
20260505055024 15 222 3.2 3.2 0.00 0.00 0.00 55 1007.6
20260505054521 15 31 3.2 4.8 0.00 0.00 0.00 54 1007.4
20260505054019 15 209 4.8 4.8 0.00 0.00 0.00 54 1007.5
20260505053516 15 215 8.0 9.7 0.00 0.00 0.00 54 1007.6
20260505053013 15 202 9.7 11.3 0.00 0.00 0.00 54 1007.6
20260505052510 15 231 4.8 8.0 0.00 0.00 0.00 54 1007.5
20260505052007 15 205 4.8 8.0 0.00 0.00 0.00 54 1007.6
20260505051504 15 137 6.4 8.0 0.00 0.00 0.00 54 1007.6
20260505051002 15 250 3.2 8.0 0.00 0.00 0.00 54 1007.6
20260505050500 15 184 3.2 3.2 0.00 0.00 0.00 54 1007.8
20260505041428 15 139 4.8 8.0 0.00 0.00 0.00 52 1007.8
20260505040925 16 200 6.4 8.0 0.00 0.00 0.00 51 1007.6
20260505040422 16 187 6.4 8.0 0.00 0.00 0.00 51 1007.6
20260505035919 16 153 9.7 12.9 0.00 0.00 0.00 50 1007.6
20260505035415 16 187 11.3 14.5 0.00 0.00 0.00 50 1007.6
20260505034912 16 250 8.0 9.7 0.00 0.00 0.00 50 1007.4
20260505034409 16 163 4.8 4.8 0.00 0.00 0.00 50 1007.4
20260505033906 16 308 6.4 8.0 0.00 0.00 0.00 50 1007.5
20260505033402 16 185 11.3 17.7 0.00 0.00 0.00 50 1007.5
20260505032901 16 299 9.7 12.9 0.00 0.00 0.00 49 1007.3
20260505032357 16 152 11.3 12.9 0.00 0.00 0.00 49 1007.4
20260505031854 16 246 4.8 4.8 0.00 0.00 0.00 48 1007.1
20260505031351 16 260 9.7 14.5 0.00 0.00 0.00 48 1007.3
20260505030848 16 107 8.0 11.3 0.00 0.00 0.00 48 1007.3
20260505030344 16 205 9.7 14.5 0.00 0.00 0.00 48 1007.4
20260505025839 16 201 6.4 8.0 0.00 0.00 0.00 48 1007.2
20260505025337 17 198 6.4 11.3 0.00 0.00 0.00 47 1007.4
20260505024835 17 276 3.2 3.2 0.00 0.00 0.00 47 1007.2
20260505024333 17 244 6.4 9.7 0.00 0.00 0.00 47 1007.5
20260505023830 17 224 9.7 16.1 0.00 0.00 0.00 47 1007.4
20260505023327 17 163 17.7 25.7 0.00 0.00 0.00 46 1007.4
20260505022824 17 183 11.3 16.1 0.00 0.00 0.00 46 1007.5
20260505022321 17 282 6.4 11.3 0.00 0.00 0.00 46 1007.5
20260505021818 17 137 14.5 17.7 0.00 0.00 0.00 46 1007.6
20260505021315 17 125 6.4 8.0 0.00 0.00 0.00 45 1007.8
20260505020810 17 234 11.3 12.9 0.00 0.00 0.00 45 1007.5
20260505020307 17 139 14.5 16.1 0.00 0.00 0.00 44 1007.7
20260505015803 17 172 8.0 9.7 0.00 0.00 0.00 44 1007.4
20260505015300 17 225 16.1 20.9 0.00 0.00 0.00 43 1007.6
20260505014758 17 142 17.7 22.5 0.00 0.00 0.00 44 1007.6
20260505014255 17 167 4.8 11.3 0.00 0.00 0.00 44 1007.4
20260505013751 17 212 17.7 25.7 0.00 0.00 0.00 44 1007.5
20260505013248 17 265 9.7 14.5 0.00 0.00 0.00 43 1007.3
20260505012747 17 184 11.3 14.5 0.00 0.00 0.00 43 1007.4
20260505012244 17 236 9.7 12.9 0.00 0.00 0.00 43 1007.4
20260505011739 17 225 4.8 8.0 0.00 0.00 0.00 42 1007.2
20260505011237 17 169 11.3 14.5 0.00 0.00 0.00 42 1007.4
20260505010732 17 187 11.3 12.9 0.00 0.00 0.00 42 1007.2
20260505010229 17 291 4.8 4.8 0.00 0.00 0.00 43 1007.2
20260505005725 17 179 4.8 4.8 0.00 0.00 0.00 42 1007.2
20260505005222 18 216 8.0 12.9 0.00 0.00 0.00 42 1007.2
20260505004719 18 245 8.0 11.3 0.00 0.00 0.00 42 1007.0
20260505004216 18 177 9.7 12.9 0.00 0.00 0.00 42 1007.1
20260505003713 18 203 9.7 11.3 0.00 0.00 0.00 41 1007.1
20260505003211 18 277 3.2 3.2 0.00 0.00 0.00 42 1006.9
20260505002707 18 153 17.7 22.5 0.00 0.00 0.00 40 1006.9
20260505002205 18 112 6.4 8.0 0.00 0.00 0.00 41 1006.8
20260505001702 18 169 4.8 4.8 0.00 0.00 0.00 41 1006.7
20260505001159 18 203 4.8 4.8 0.00 0.00 0.00 40 1007.0
20260505000656 18 189 4.8 9.7 0.00 0.00 0.00 40 1006.9
20260505000154 18 244 9.7 11.3 0.00 0.00 0.00 39 1006.8
20260504235650 18 186 6.4 8.0 0.00 0.00 0.00 40 1006.8
20260504235146 18 185 9.7 14.5 0.00 0.00 0.00 39 1006.8
20260504234644 19 211 4.8 9.7 0.00 0.00 0.00 38 1006.8
20260504234141 19 224 8.0 12.9 0.00 0.00 0.00 39 1006.7
20260504233637 19 209 8.0 11.3 0.00 0.00 0.00 38 1006.7
20260504233133 19 231 9.7 12.9 0.00 0.00 0.00 37 1006.5
20260504232631 20 248 6.4 9.7 0.00 0.00 0.00 37 1006.4
20260504232127 20 189 4.8 4.8 0.00 0.00 0.00 38 1006.5
20260504231624 20 222 6.4 8.0 0.00 0.00 0.00 37 1006.3
20260504231120 20 171 8.0 9.7 0.00 0.00 0.00 36 1006.5
20260504230616 20 277 4.8 4.8 0.00 0.00 0.00 37 1006.4
20260504230116 20 288 11.3 12.9 0.00 0.00 0.00 36 1006.4
20260504225613 20 159 8.0 11.3 0.00 0.00 0.00 37 1006.5
20260504225109 20 165 12.9 16.1 0.00 0.00 0.00 36 1006.7
20260504224606 20 58 9.7 12.9 0.00 0.00 0.00 35 1006.5
20260504224103 20 158 17.7 22.5 0.00 0.00 0.00 36 1006.4
20260504223600 20 147 11.3 16.1 0.00 0.00 0.00 35 1006.4
20260504223055 20 146 11.3 14.5 0.00 0.00 0.00 36 1006.7
20260504222553 20 184 9.7 11.3 0.00 0.00 0.00 36 1006.5
20260504222050 20 246 11.3 11.3 0.00 0.00 0.00 35 1006.7
20260504221547 20 238 11.3 12.9 0.00 0.00 0.00 35 1006.9
20260504221044 20 145 22.5 25.7 0.00 0.00 0.00 34 1006.7
20260504220540 20 166 16.1 20.9 0.00 0.00 0.00 35 1006.8
20260504220037 20 268 9.7 12.9 0.00 0.00 0.00 35 1006.5
20260504215534 20 271 12.9 14.5 0.00 0.00 0.00 34 1006.3
20260504215032 20 236 8.0 12.9 0.00 0.00 0.00 36 1006.4
20260504214527 20 228 17.7 20.9 0.00 0.00 0.00 34 1006.7
20260504214024 20 187 9.7 14.5 0.00 0.00 0.00 35 1006.4
20260504213521 20 216 9.7 14.5 0.00 0.00 0.00 34 1006.5
20260504213018 20 222 9.7 12.9 0.00 0.00 0.00 35 1006.5
20260504212513 20 245 6.4 8.0 0.00 0.00 0.00 36 1006.4
20260504212011 20 201 6.4 9.7 0.00 0.00 0.00 35 1006.4
20260504211508 20 240 17.7 20.9 0.00 0.00 0.00 34 1007.0
20260504211005 20 211 12.9 16.1 0.00 0.00 0.00 36 1007.0
20260504210502 20 184 16.1 20.9 0.00 0.00 0.00 35 1006.8
20260504205958 20 260 8.0 14.5 0.00 0.00 0.00 36 1006.7
20260504205456 20 209 9.7 16.1 0.00 0.00 0.00 36 1007.0
20260504204954 20 290 4.8 8.0 0.00 0.00 0.00 34 1006.9
20260504204452 21 241 16.1 17.7 0.00 0.00 0.00 33 1006.9
20260504203951 20 184 11.3 20.9 0.00 0.00 0.00 35 1007.0
20260504203449 20 308 3.2 3.2 0.00 0.00 0.00 36 1007.0
20260504202944 21 158 6.4 8.0 0.00 0.00 0.00 35 1007.1
20260504202441 20 143 8.0 11.3 0.00 0.00 0.00 36 1007.3
20260504201938 20 199 12.9 16.1 0.00 0.00 0.00 35 1007.0
20260504201435 20 234 12.9 17.7 0.00 0.00 0.00 35 1007.1
20260504200933 20 125 8.0 11.3 0.00 0.00 0.00 36 1007.3
20260504200429 20 174 14.5 17.7 0.00 0.00 0.00 35 1007.1
20260504195926 20 194 8.0 12.9 0.00 0.00 0.00 38 1007.3
20260504195422 20 212 11.3 16.1 0.00 0.00 0.00 37 1007.6
20260504194918 20 246 9.7 12.9 0.00 0.00 0.00 39 1007.5
20260504194414 20 253 17.7 22.5 0.00 0.00 0.00 36 1007.7
20260504193910 20 208 8.0 11.3 0.00 0.00 0.00 39 1007.5
20260504193408 20 205 12.9 17.7 0.00 0.00 0.00 37 1007.4
20260504192907 19 217 8.0 14.5 0.00 0.00 0.00 39 1007.4
20260504192403 19 209 12.9 16.1 0.00 0.00 0.00 38 1007.5
20260504191902 19 216 14.5 16.1 0.00 0.00 0.00 38 1007.6
20260504191400 20 175 6.4 9.7 0.00 0.00 0.00 38 1007.7
20260504190855 20 235 14.5 17.7 0.00 0.00 0.00 37 1007.6
20260504190351 20 264 9.7 14.5 0.00 0.00 0.00 40 1007.8
20260504185848 19 223 8.0 9.7 0.00 0.00 0.00 37 1007.9
20260504185345 18 223 14.5 20.9 0.00 0.00 0.00 38 1008.0
20260504184841 19 224 9.7 12.9 0.00 0.00 0.00 38 1007.8
20260504184337 18 213 11.3 14.5 0.00 0.00 0.00 38 1007.9
20260504183833 18 210 12.9 16.1 0.00 0.00 0.00 38 1008.0
20260504183330 18 249 19.3 24.1 0.00 0.00 0.00 37 1008.3
20260504182828 18 231 6.4 9.7 0.00 0.00 0.00 39 1008.2
20260504182325 20 182 14.5 17.7 0.00 0.00 0.00 37 1008.4
20260504181822 19 212 8.0 9.7 0.00 0.00 0.00 38 1008.1
20260504181319 18 234 12.9 17.7 0.00 0.00 0.00 39 1007.9
20260504180818 18 219 6.4 9.7 0.00 0.00 0.00 39 1008.2
20260504180316 18 168 9.7 14.5 0.00 0.00 0.00 41 1008.1
20260504175814 18 235 8.0 9.7 0.00 0.00 0.00 40 1008.4
20260504175311 18 245 11.3 14.5 0.00 0.00 0.00 39 1008.3
20260504174809 18 261 11.3 17.7 0.00 0.00 0.00 39 1008.6
20260504174306 18 321 8.0 11.3 0.00 0.00 0.00 38 1008.4
20260504173802 18 224 4.8 8.0 0.00 0.00 0.00 42 1008.4
20260504173259 18 219 9.7 14.5 0.00 0.00 0.00 39 1008.4
20260504172756 18 190 11.3 14.5 0.00 0.00 0.00 40 1008.6
20260504172253 18 177 14.5 24.1 0.00 0.00 0.00 41 1008.5
20260504171749 17 214 17.7 22.5 0.00 0.00 0.00 39 1008.5
20260504171246 17 176 20.9 29.0 0.00 0.00 0.00 41 1008.6
20260504170743 17 174 17.7 24.1 0.00 0.00 0.00 41 1008.5
20260504170240 17 229 8.0 12.9 0.00 0.00 0.00 40 1008.6
20260504160159 16 336 4.8 8.0 0.00 0.00 0.00 44 1009.3
20260504151126 15 211 9.7 11.3 0.00 0.00 0.00 44 1010.0
20260504150624 15 213 12.9 16.1 0.00 0.00 0.00 44 1010.0
20260504150121 14 238 16.1 17.7 0.00 0.00 0.00 43 1009.9
20260504141049 12 222 4.8 8.0 0.00 0.00 0.00 48 1010.5
20260504140546 12 245 9.7 12.9 0.00 0.00 0.00 46 1010.3
20260504130510 10 206 3.2 3.2 0.00 0.00 0.00 54 1010.9
20260504110357 7 275 1.6 1.6 0.00 0.00 0.00 60 1011.2
20260504100315 6 319 0.0 0.0 0.00 0.00 0.00 63 1010.8